Location: Aboncourt
(47.7710°N, 5.9826°E)
Time: 02:49:52
(UTC+00:00)

Cosmos 1766 Rocket - Pass Details

Date: 05 July 2020
Orbit: 606 x 632 km, 82.5° (Epoch: 03 August)

Event Time Altitude Azimuth Distance (km) Brightness Sun altitude
Exits shadow 22:44:23 38° 140° (SE) 952 4.0 -18.4°
Maximum altitude 22:45:36 49° 94° (E) 796 3.9 -18.5°
Drops below altitude 10° 22:49:52 10° 19° (NNE) 1,998 7.0 -18.6°
Sets 22:52:10 0° 15° (NNE) 2,914 8.1 -18.7°
